Home   Weather   Huelva   Past weeks

Flag for Spain Past Weather in Huelva, Spain — Yesterday and Last 2 Weeks

Now
75 °F

Clear.


Feels Like: 77 °F
Forecast: 70 / 90 °F
Wind: No wind

Location: Rota Airport

Current Time: Aug 16, 2017 at 11:59:27 pm

Latest Report: Aug 16, 2017 at 11:00 pm


Visibility: 10 mi

Pressure: 30.04 "Hg

Humidity: 74%

Dew Point: 66 °F

Location of HuelvaLocation

Past Weather in Huelva — Graph

°F

Huelva Temperature Yesterday

Maximum temperature yesterday: 86 °F (at 6:00 pm)
Minimum temperature yesterday: 72 °F (at 5:00 am)
Average temperature yesterday: 78 °F

High & Low Weather Summary for the Past Weeks

 TemperatureHumidityPressure
High93 °F (Aug 4, 7:00 pm)94% (Aug 5, 8:00 am)30.09 "Hg (Aug 5, 8:00 am)
Low63 °F (Aug 2, 7:00 am)31% (Aug 12, 7:00 pm)29.89 "Hg (Aug 4, 6:00 pm)
Average79 °F61%29.98 "Hg
* Reported Aug 1 10:00 pm — Aug 16 10:00 pm, Huelva. Weather by CustomWeather, © 2017

Note: Actual official high and low records may vary slightly from our data, if they occured in-between our weather recording intervals... More about our weather records

Advertising

Huelva Weather History for the Previous 24 Hours

Scroll right to see more
 ConditionsComfort  
Time TempWeatherWind HumidityBarometerVisibility
10:00 pm
Wed, Aug 16
75 °FClear.2 mph78%30.01 "Hg10 mi
9:00 pm77 °FPassing clouds.10 mph69%30.01 "HgN/A
8:00 pm81 °FSunny.14 mph62%30.01 "Hg10 mi
7:00 pm84 °FPassing clouds.12 mph58%30.01 "HgN/A
6:00 pm84 °FPassing clouds.10 mph51%30.01 "HgN/A
5:00 pm86 °FSunny.12 mph40%30.04 "Hg10 mi
4:00 pm86 °FSunny.13 mph40%30.04 "Hg10 mi
3:00 pm86 °FSunny.13 mph46%30.04 "Hg10 mi
2:00 pm88 °FPassing clouds.7 mph46%30.07 "HgN/A
1:00 pm84 °FSunny.1 mph55%30.07 "Hg10 mi
12:00 pm86 °FSunny.1 mph40%30.09 "Hg10 mi
11:00 am81 °FSunny.1 mph48%30.07 "Hg10 mi
10:00 am77 °FSunny.1 mph54%30.07 "Hg10 mi
9:00 am70 °FSunny.1 mph69%30.07 "Hg10 mi
8:00 am68 °FSunny.1 mph83%30.07 "Hg10 mi
7:00 am66 °FClear.No wind94%30.04 "Hg10 mi
6:00 am68 °FClear.No wind94%30.04 "Hg10 mi
5:00 am72 °FClear.No wind94%30.04 "Hg10 mi
4:00 am72 °FClear.2 mph94%30.04 "Hg10 mi
3:00 am73 °FClear.2 mph83%30.04 "Hg10 mi
2:00 am73 °FClear.2 mph83%30.07 "Hg10 mi
1:00 am73 °FClear.2 mph83%30.07 "Hg10 mi
12:00 am73 °FClear.3 mph83%30.07 "Hg10 mi
11:00 pm
Tue, Aug 15
75 °FClear.3 mph78%30.04 "Hg10 mi
Weather by CustomWeather, © 2017

See weather overviewHow to use our weather pages